Location: Dead Woman Crossing
(43.5369°N, 106.3228°W)
Time: 16:00:03
(UTC+00:00)

O/OREOS (USA 219) - Pass Details

Date: 09 July 2022
Orbit: 621 x 646 km, 72.0° (Epoch: 22 May)

Event Time Altitude Azimuth Distance (km) Brightness Sun altitude
Rises 05:12:15 0° 343° (NNW) 2,967 ? -18.7°
Reaches altitude 10° 05:14:41 10° 352° (N) 2,054 ? -18.9°
Maximum altitude 05:18:58 37° 60° (ENE) 1,009 ? -19.3°
Enters shadow 05:20:32 28° 101° (E) 1,200 ? -19.4°
